Simultaneous Nadir Overpasses (SNOs) Predictions

Prediction of SNOs between LANDSAT-8 and NOAA-19 Satellite Orbit:

Table of predicted SNOs for the next 14.0 days since TLE Epoch: 9/13/2014
Index Date (LANDSAT-8) Time (LANDSAT-8) Lat,Lon (LANDSAT-8) SZA (LANDSAT-8 ) Date (NOAA-19) Time (NOAA-19) Lat,Lon (NOAA-19) SZA (NOAA-19 ) Distance(km) Time Diff (sec)
1 09/13/2014 19:07:08 72.26,-106.99 68.57 09/13/2014 19:06:23 72.24,-106.98 68.54 2.69 45
2 09/13/2014 19:56:38 -72.15, 60.43 111.54 09/13/2014 19:57:19 -72.13, 60.50 111.56 3.35 41
3 09/15/2014 23:51:24 72.33,-177.94 69.48 09/15/2014 23:50:11 72.35,-178.11 69.49 6.01 73
4 09/16/2014 00:40:54 -72.22, -10.51 110.63 09/16/2014 00:41:06 -72.20, -10.57 110.64 2.41 12
5 09/18/2014 05:25:11 -72.22, -81.57 109.77 09/18/2014 05:24:52 -72.24, -81.55 109.75 1.92 19
6 09/18/2014 06:14:41 71.96, 85.61 69.99 09/18/2014 06:15:52 71.93, 86.29 69.96 23.49 71
7 09/20/2014 10:09:27 -72.27,-152.56 108.87 09/20/2014 10:08:38 -72.28,-152.54 108.86 1.13 49
8 09/20/2014 10:58:54 72.17, 14.91 71.05 09/20/2014 10:59:42 72.15, 14.94 71.03 2.39 48
9 09/22/2014 14:53:40 -72.46, 136.73 107.82 09/22/2014 14:52:28 -72.52, 136.04 107.76 23.84 72
10 09/22/2014 15:43:10 72.20, -56.10 71.94 09/22/2014 15:43:29 72.23, -56.13 71.96 2.87 19
11 09/24/2014 20:27:25 72.28,-127.03 72.87 09/24/2014 20:27:15 72.26,-127.11 72.86 3.37 10
12 09/24/2014 21:16:55 -72.17, 40.40 107.23 09/24/2014 21:18:09 -72.15, 40.38 107.25 2.31 74
13 09/27/2014 01:11:41 72.29,
